This is the latest recevied weather packets stored in our database for station/object HS5BOG-13. If no packets are shown the sender has not sent any weather packets the latest 10 day(s).
| Time | Temp. | Humidity | Pressure | Rain* | Wind** | Luminosity | Snow |
|---|---|---|---|---|---|---|---|
| 1778056207 | 32.78° C | 59% | 987.4 hPa | - | - | - | - |
| 1778055601 | 32.78° C | 59% | 987.6 hPa | - | - | - | - |
| 1778054996 | 32.78° C | 60% | 987.7 hPa | - | - | - | - |
| 1778054390 | 32.78° C | 61% | 987.9 hPa | - | - | - | - |
| 1778053785 | 32.78° C | 60% | 987.9 hPa | - | - | - | - |
| 1778053179 | 32.78° C | 61% | 988 hPa | - | - | - | - |
| 1778052574 | 32.78° C | 62% | 988.3 hPa | - | - | - | - |
| 1778051968 | 32.78° C | 63% | 988.6 hPa | - | - | - | - |
| 1778051362 | 32.22° C | 62% | 988.9 hPa | - | - | - | - |
| 1778050757 | 32.22° C | 65% | 989.1 hPa | - | - | - | - |
| 1778050151 | 32.22° C | 64% | 989.3 hPa | - | - | - | - |
| 1778049545 | 32.22° C | 63% | 989.6 hPa | - | - | - | - |
| 1778048940 | 31.67° C | 65% | 989.8 hPa | - | - | - | - |
| 1778048334 | 32.22° C | 63% | 990.1 hPa | - | - | - | - |
| 1778047729 | 31.67° C | 63% | 990.3 hPa | - | - | - | - |
| 1778047123 | 31.67° C | 66% | 990.7 hPa | - | - | - | - |
| 1778046518 | 31.67° C | 66% | 990.8 hPa | - | - | - | - |
| 1778045912 | 31.67° C | 67% | 991 hPa | - | - | - | - |
| 1778045307 | 31.67° C | 68% | 991.1 hPa | - | - | - | - |
| 1778044701 | 31.11° C | 70% | 991.4 hPa | - | - | - | - |
| 1778044095 | 31.11° C | 70% | 991.5 hPa | - | - | - | - |
| 1778043490 | 31.11° C | 71% | 991.7 hPa | - | - | - | - |
| 1778042884 | 31.11° C | 72% | 991.8 hPa | - | - | - | - |
| 1778042278 | 31.11° C | 72% | 991.9 hPa | - | - | - | - |
| 1778041673 | 30.56° C | 76% | 991.8 hPa | - | - | - | - |
* Rain since midnight (hover to see other rain measurements)
** Current wind speed in m/s (hover to see current wind gust speed)